Stündliche Wetter Czyzykow

Heute, 30 Oktober, Freitag

Zeit Temperatur Niederschläge Wind Luftdruck Luftfeuchtigkeit
00:00 +5°C° 0 mm 4 m/S 742 mmHg 85%
01:00 +5°C° 0 mm 4 m/S 743 mmHg 85%
02:00 +5°C° 0 mm 4 m/S 743 mmHg 87%
03:00 +5°C° 0 mm 4 m/S 743 mmHg 88%
04:00 +4°C° 0 mm 4 m/S 743 mmHg 90%
05:00 +4°C° 0 mm 4 m/S 743 mmHg 91%
06:00 +4°C° 0 mm 4 m/S 743 mmHg 91%
07:00 +4°C° 0 mm 4 m/S 743 mmHg 90%
08:00 +5°C° 0 mm 4 m/S 743 mmHg 84%
09:00 +6°C° 0 mm 4 m/S 743 mmHg 78%
10:00 +7°C° 0 mm 4 m/S 743 mmHg 72%
11:00 +8°C° 0 mm 4 m/S 743 mmHg 69%
12:00 +10°C° 0 mm 3 m/S 743 mmHg 65%
13:00 +10°C° 0 mm 3 m/S 743 mmHg 62%
14:00 +10°C° 0 mm 3 m/S 743 mmHg 65%
15:00 +9°C° 0 mm 2 m/S 742 mmHg 68%
16:00 +9°C° 0 mm 2 m/S 742 mmHg 71%
17:00 +9°C° 0.2 mm 2 m/S 742 mmHg 77%
18:00 +8°C° 0.2 mm 2 m/S 742 mmHg 82%
19:00 +9°C° 0.2 mm 1 m/S 742 mmHg 87%
20:00 +9°C° 0.9 mm 1 m/S 742 mmHg 89%
21:00 +9°C° 0.9 mm 1 m/S 742 mmHg 91%
22:00 +9°C° 0.9 mm 1 m/S 742 mmHg 94%
23:00 +9°C° 0.3 mm 1 m/S 742 mmHg 93%

Morgen, 31 Oktober, Samstag

Zeit Temperatur Niederschläge Wind Luftdruck Luftfeuchtigkeit
00:00 +9°C° 0.3 mm 1 m/S 743 mmHg 93%
01:00 +8°C° 0.3 mm 0 m/S 743 mmHg 93%
02:00 +8°C° 0 mm 1 m/S 743 mmHg 93%
03:00 +8°C° 0 mm 1 m/S 744 mmHg 93%
04:00 +8°C° 0 mm 1 m/S 744 mmHg 93%
05:00 +7°C° 0 mm 1 m/S 745 mmHg 93%
06:00 +7°C° 0 mm 1 m/S 745 mmHg 92%
07:00 +7°C° 0 mm 1 m/S 746 mmHg 92%
08:00 +8°C° 0 mm 1 m/S 746 mmHg 85%
09:00 +9°C° 0 mm 1 m/S 746 mmHg 79%
10:00 +10°C° 0 mm 1 m/S 747 mmHg 73%
11:00 +11°C° 0 mm 1 m/S 747 mmHg 69%
12:00 +11°C° 0 mm 1 m/S 747 mmHg 65%
13:00 +12°C° 0 mm 1 m/S 747 mmHg 61%
14:00 +11°C° 0 mm 1 m/S 747 mmHg 64%
15:00 +11°C° 0 mm 1 m/S 747 mmHg 67%
16:00 +10°C° 0 mm 1 m/S 747 mmHg 70%
17:00 +9°C° 0 mm 1 m/S 747 mmHg 72%
18:00 +9°C° 0 mm 1 m/S 747 mmHg 75%
19:00 +8°C° 0 mm 1 m/S 747 mmHg 78%
20:00 +8°C° 0 mm 1 m/S 747 mmHg 79%
21:00 +7°C° 0 mm 1 m/S 747 mmHg 81%
22:00 +6°C° 0 mm 2 m/S 747 mmHg 83%
23:00 +6°C° 0 mm 2 m/S 747 mmHg 85%

übermorgen, 1 November, Sonntag

Zeit Temperatur Niederschläge Wind Luftdruck Luftfeuchtigkeit
00:00 +5°C° 0 mm 2 m/S 747 mmHg 86%
01:00 +5°C° 0 mm 2 m/S 747 mmHg 88%
02:00 +5°C° 0 mm 2 m/S 746 mmHg 89%
03:00 +5°C° 0 mm 2 m/S 746 mmHg 89%
04:00 +5°C° 0 mm 2 m/S 746 mmHg 89%
05:00 +4°C° 0 mm 2 m/S 746 mmHg 89%
06:00 +3°C° 0 mm 3 m/S 746 mmHg 89%
07:00 +3°C° 0 mm 3 m/S 745 mmHg 89%
08:00 +5°C° 0 mm 3 m/S 745 mmHg 83%
09:00 +6°C° 0 mm 4 m/S 745 mmHg 77%
10:00 +7°C° 0 mm 4 m/S 745 mmHg 71%
11:00 +8°C° 0 mm 4 m/S 744 mmHg 68%
12:00 +10°C° 0 mm 4 m/S 744 mmHg 64%
13:00 +11°C° 0 mm 4 m/S 743 mmHg 61%
14:00 +11°C° 0 mm 4 m/S 743 mmHg 66%
15:00 +10°C° 0 mm 4 m/S 742 mmHg 70%
16:00 +9°C° 0 mm 3 m/S 742 mmHg 74%
17:00 +8°C° 0 mm 4 m/S 742 mmHg 77%
18:00 +8°C° 0 mm 4 m/S 742 mmHg 79%
19:00 +8°C° 0 mm 4 m/S 742 mmHg 81%
20:00 +8°C° 0 mm 4 m/S 741 mmHg 83%
21:00 +8°C° 0 mm 4 m/S 741 mmHg 86%
22:00 +8°C° 0 mm 4 m/S 741 mmHg 88%
23:00 +8°C° 0.1 mm 4 m/S 740 mmHg 90%

2 November, Montag

Zeit Temperatur Niederschläge Wind Luftdruck Luftfeuchtigkeit
00:00 +8°C° 0.1 mm 4 m/S 740 mmHg 91%
01:00 +10°C° 0.1 mm 3 m/S 740 mmHg 92%
02:00 +10°C° 0.2 mm 3 m/S 740 mmHg 93%
03:00 +10°C° 0.2 mm 3 m/S 740 mmHg 94%
04:00 +10°C° 0.2 mm 3 m/S 740 mmHg 95%
05:00 +10°C° 0.1 mm 3 m/S 740 mmHg 95%
06:00 +10°C° 0.1 mm 3 m/S 740 mmHg 96%
07:00 +10°C° 0.1 mm 3 m/S 740 mmHg 96%
08:00 +11°C° 0 mm 3 m/S 740 mmHg 93%
09:00 +12°C° 0 mm 3 m/S 741 mmHg 91%
10:00 +13°C° 0 mm 3 m/S 741 mmHg 88%
11:00 +13°C° 0 mm 3 m/S 741 mmHg 85%
12:00 +14°C° 0 mm 3 m/S 741 mmHg 83%
13:00 +14°C° 0 mm 3 m/S 741 mmHg 80%
14:00 +14°C° 0 mm 3 m/S 741 mmHg 84%
15:00 +13°C° 0 mm 3 m/S 741 mmHg 87%
16:00 +13°C° 0 mm 3 m/S 741 mmHg 91%
17:00 +13°C° 0 mm 3 m/S 741 mmHg 92%
18:00 +13°C° 0 mm 4 m/S 741 mmHg 92%
19:00 +13°C° 0 mm 4 m/S 741 mmHg 93%
20:00 +13°C° 0 mm 4 m/S 741 mmHg 92%
21:00 +13°C° 0 mm 4 m/S 741 mmHg 92%
22:00 +13°C° 0 mm 4 m/S 741 mmHg 91%
23:00 +13°C° 0 mm 4 m/S 741 mmHg 91%

3 November, Dienstag

Zeit Temperatur Niederschläge Wind Luftdruck Luftfeuchtigkeit
00:00 +13°C° 0 mm 4 m/S 741 mmHg 91%
01:00 +13°C° 0 mm 4 m/S 741 mmHg 91%
02:00 +13°C° 0 mm 4 m/S 741 mmHg 91%
03:00 +13°C° 0 mm 4 m/S 741 mmHg 91%
04:00 +13°C° 0 mm 4 m/S 741 mmHg 91%
05:00 +13°C° 0 mm 4 m/S 741 mmHg 91%
06:00 +13°C° 0 mm 3 m/S 742 mmHg 92%
07:00 +13°C° 0 mm 3 m/S 742 mmHg 92%
08:00 +13°C° 0 mm 4 m/S 743 mmHg 90%
09:00 +14°C° 0 mm 4 m/S 743 mmHg 88%
10:00 +14°C° 0 mm 5 m/S 744 mmHg 86%
11:00 +14°C° 0 mm 5 m/S 744 mmHg 79%
12:00 +14°C° 0 mm 5 m/S 744 mmHg 73%
13:00 +14°C° 0 mm 4 m/S 745 mmHg 66%
14:00 +13°C° 0 mm 4 m/S 745 mmHg 66%
15:00 +12°C° 0 mm 3 m/S 746 mmHg 66%
16:00 +12°C° 0 mm 3 m/S 746 mmHg 66%
17:00 +11°C° 0 mm 3 m/S 746 mmHg 66%
18:00 +12°C° 0 mm 2 m/S 747 mmHg 67%
19:00 +10°C° 0 mm 2 m/S 747 mmHg 68%
20:00 +10°C° 0 mm 2 m/S 748 mmHg 70%
21:00 +10°C° 0 mm 2 m/S 748 mmHg 71%
22:00 +9°C° 0 mm 2 m/S 748 mmHg 73%
23:00 +10°C° 0 mm 1 m/S 748 mmHg 73%

4 November, Mittwoch

Zeit Temperatur Niederschläge Wind Luftdruck Luftfeuchtigkeit
00:00 +10°C° 0 mm 1 m/S 748 mmHg 73%
01:00 +10°C° 0 mm 1 m/S 748 mmHg 73%
02:00 +10°C° 0 mm 1 m/S 748 mmHg 73%
03:00 +9°C° 0 mm 1 m/S 748 mmHg 74%
04:00 +9°C° 0 mm 1 m/S 748 mmHg 74%
05:00 +9°C° 0.1 mm 1 m/S 748 mmHg 75%
06:00 +9°C° 0.1 mm 1 m/S 749 mmHg 76%
07:00 +9°C° 0.1 mm 1 m/S 749 mmHg 77%
08:00 +9°C° 0.4 mm 1 m/S 749 mmHg 79%
09:00 +9°C° 0.4 mm 1 m/S 749 mmHg 81%
10:00 +8°C° 0.4 mm 0 m/S 749 mmHg 83%
11:00 +8°C° 0.9 mm 1 m/S 750 mmHg 84%
12:00 +7°C° 0.9 mm 2 m/S 750 mmHg 84%
13:00 +7°C° 0.9 mm 2 m/S 750 mmHg 84%
14:00 +7°C° 0.2 mm 2 m/S 750 mmHg 85%
15:00 +7°C° 0.2 mm 2 m/S 750 mmHg 85%
16:00 +7°C° 0.2 mm 2 m/S 750 mmHg 86%
17:00 +7°C° 0 mm 2 m/S 751 mmHg 86%
18:00 +7°C° 0 mm 2 m/S 751 mmHg 86%
19:00 +7°C° 0 mm 2 m/S 752 mmHg 87%
20:00 +6°C° 0 mm 2 m/S 752 mmHg 88%
21:00 +7°C° 0 mm 1 m/S 752 mmHg 89%
22:00 +7°C° 0 mm 1 m/S 752 mmHg 91%
23:00 +7°C° 0 mm 1 m/S 753 mmHg 91%
Mehr zeigen

Wir brauchen deine Erlaubnis

Meteoprog und unser Service Anbieter werden persönliche Daten aufbewahren, so wie Cookies, Geräte Bezeichnung oder ähnliche Technologien von deinem Gerät und Prozess, so wie Persönliche Daten Inhalte und Werbungen, genauso wie social Media und den Verkehr zu analysieren.

  • Aufbewahrung und/oder Zugang zu deiner Geräte Informationen.

    Cookies, Geräte Bezeichnung oder andere Informationen, können aufbewahrt oder Zugang zu deinem Gerät erhalten, für den Grund, der oben angegeben wird.

  • Personalisierte Werbung und Inhalte, Messungen, Einblick in das Publikum und Produkt Entwicklung.

    Werbungen und Inhalte können personalisiert werden, basierend auf ein Profil. Mehr Daten können besser personalisierte Werbungen und Inhalte hinzufügen. Werbung und Inhalte können gezeigt und gemessen werden. Einblicke über das Publikum, welche die Werbung gesehen haben und den Inhalt, können abgeleitet werden. So wie Daten können genutzt werden, um es zu verbessern oder die Benutzer Erfahrung zu verbessern das System und die Software.

Wenn du “Ich stimme zu” klickst, erlaubst du uns, die Cookies zu benutzen die Geräte Bezeichnung, den Web oder ähnliche Technologien zu benutzen. Deine Settings, können in deinem Gerät bei deinem Browser geändert werden.

Für den bestimmten Zweck, berechtigten Interessen beruhen darauf, mehr als auf den Inhalt. Du kannst mehr darüber in unseren Privaten und Cookie Politik lesen.